Wind_Speed
16 15 14 13 11 10 9 9 9 9 8 7 8 9 10 10 11 11 12 12 13 13 14 15 16 15 13 12 11 10 10 9 9 9 9 10 11 13 14 14 15 14
18 17 17 16 15 13 12 12 12 12 12 11 11 12 12 13 13 13 13 13 14 14 14 15 16 16 14 13 12 11 11 10 10 9 10 11 12 14 15 15 16 16
21 20 20 19 18 17 16 15 15 16 16 15 15 15 14 14 14 14 14 14 14 14 15 16 16 16 15 13 11 11 11 11 10 10 10 11 13 14 16 16 16 16
24 23 23 21 21 21 20 19 19 18 18 18 17 18 17 16 16 16 16 15 15 15 15 16 17 17 15 13 12 11 11 11 10 10 10 11 13 15 16 17 16 16
27 26 25 24 24 24 24 24 23 21 21 20 20 20 19 19 19 18 17 17 16 17 16 16 17 17 16 14 12 11 10 10 10 10 10 11 13 14 15 16 16 16
29 29 28 28 27 27 27 27 26 24 24 23 22 22 22 22 22 20 19 19 18 18 17 17 17 17 17 15 13 12 10 10 9 9 10 11 13 14 15 16 16 16
31 31 31 31 30 30 29 29 29 27 25 24 24 23 22 23 22 22 22 21 19 19 19 18 17 17 17 16 14 12 11 9 9 9 9 11 12 13 14 15 15 16
32 34 34 33 33 33 32 32 33 31 28 25 25 24 24 24 24 24 23 20 19 20 20 19 18 18 17 16 14 12 11 10 9 9 9 10 11 12 14 15 15 16
32 35 37 37 36 36 35 35 35 35 32 28 26 26 27 28 27 25 23 20 20 21 21 21 20 19 17 16 15 13 11 10 10 9 8 9 10 12 13 15 16 17
33 37 41 41 40 39 39 37 37 37 35 31 29 29 29 28 29 27 24 22 21 22 22 22 21 20 18 17 16 14 12 11 10 9 8 8 10 12 13 15 16 18
35 42 45 43 42 42 41 40 40 40 37 35 33 31 29 29 31 31 28 23 22 23 23 24 23 21 19 18 16 14 12 11 10 9 8 9 10 12 14 15 17 18
40 44 44 44 44 44 43 43 43 43 42 39 37 36 35 34 34 36 33 26 23 25 25 25 24 21 19 18 16 14 12 11 10 10 9 10 12 14 15 16 18 19
40 41 43 45 45 44 44 45 45 48 50 46 44 44 44 41 39 39 37 31 25 26 26 25 24 22 19 18 16 14 12 11 11 12 11 12 14 15 16 17 19 20
35 37 40 45 48 46 44 45 46 49 53 51 48 49 49 47 45 42 40 36 29 26 27 26 24 22 19 17 16 14 13 13 14 14 14 15 16 17 18 19 21 22
33 37 39 45 53 53 45 44 47 50 53 51 49 51 52 51 52 48 41 37 33 29 27 26 24 21 19 17 17 15 14 15 15 16 16 17 18 18 19 21 23 24
36 38 39 43 52 54 47 43 46 49 51 50 50 53 54 54 55 52 43 38 35 30 26 25 23 20 19 18 18 16 16 16 16 17 17 18 19 19 20 22 25 26
36 36 37 38 44 51 50 41 36 37 40 44 48 53 57 57 57 55 46 40 36 30 25 24 22 20 20 20 20 18 17 18 18 17 17 19 20 21 21 24 26 27
37 36 37 36 39 47 47 36 28 26 30 37 44 51 56 57 58 59 51 41 36 31 26 24 22 21 21 21 21 20 19 20 20 18 19 20 21 23 24 26 28 29
38 37 37 36 37 40 37 30 26 25 26 32 38 47 55 58 62 64 54 42 41 36 28 26 25 22 22 22 22 22 21 22 22 20 20 21 23 25 26 28 28 29
38 37 36 34 32 32 30 30 31 29 28 32 38 46 54 58 65 66 53 42 44 40 33 32 28 21 20 23 23 23 24 24 24 23 23 24 25 27 29 30 30 29
35 36 36 34 31 31 31 32 32 29 29 34 39 47 54 56 61 63 52 44 45 43 40 35 25 18 21 24 24 25 26 26 27 26 26 27 28 30 31 33 33 31
32 35 37 34 31 32 34 35 35 33 32 34 38 45 50 51 56 57 48 44 46 45 41 32 22 21 25 24 23 25 27 27 28 28 28 29 31 33 34 35 34 32
30 33 34 32 31 33 34 38 40 37 36 37 38 39 37 38 45 46 39 40 45 42 36 28 23 23 23 21 22 26 28 29 28 27 27 29 31 33 34 36 37 34
28 30 30 30 32 33 34 38 39 38 39 40 35 30 25 25 31 33 33 39 42 37 32 27 22 22 22 22 24 27 29 29 27 26 28 29 31 33 34 37 37 35
26 28 29 29 30 31 33 35 32 31 34 32 23 18 18 20 24 27 30 35 35 31 28 24 21 21 22 22 24 26 28 28 28 29 30 30 32 34 35 36 36 35
27 28 29 29 28 29 31 30 24 21 21 18 13 12 16 19 22 25 29 30 29 27 25 24 23 25 24 22 23 24 26 29 30 30 31 32 33 34 34 35 35 35
Wind_Direction
214 211 207 205 204 208 219 229 234 242 253 266 280 293 303 311 315 317 323 329 334 337 341 342 338 334 332 331 330 327 325 323 320 315 308 301 297 295 294 294 296 298
227 224 221 220 222 227 236 245 252 257 260 265 274 283 291 300 307 309 311 318 324 327 329 331 331 328 325 326 326 326 327 327 322 316 309 304 300 297 296 297 298 299
236 234 233 234 236 239 243 248 256 262 265 268 273 278 283 293 301 303 304 309 314 317 318 321 324 324 321 320 321 322 325 325 321 318 312 305 302 299 298 299 300 299
240 241 241 242 244 246 247 250 256 262 267 269 272 275 280 288 294 296 299 301 305 308 310 313 318 320 317 314 314 316 320 321 319 318 315 308 303 300 299 300 301 300
242 244 244 245 248 251 252 254 258 262 266 267 270 274 278 284 288 291 296 298 299 300 302 306 312 314 312 309 309 312 315 316 317 317 315 310 306 304 302 301 303 303
244 245 245 246 249 253 256 257 258 261 263 261 264 270 274 279 283 287 293 295 293 294 296 300 306 308 307 305 305 308 310 309 311 314 313 310 308 306 304 304 304 304
246 248 248 249 249 252 256 255 254 256 258 256 257 264 269 273 276 283 291 291 287 289 292 295 301 302 302 302 300 299 302 302 305 309 311 310 309 308 306 307 307 306
249 249 249 249 250 251 253 252 252 255 260 261 259 260 265 268 270 279 289 287 280 285 289 290 295 297 297 295 292 291 293 295 301 306 308 311 312 311 309 309 309 307
251 251 249 247 246 246 248 250 253 254 259 263 260 258 263 266 266 274 284 281 274 280 287 287 288 291 291 288 284 285 287 290 295 298 302 311 313 310 310 310 311 309
255 252 247 243 243 245 247 249 251 251 253 258 259 261 265 263 259 266 278 277 272 276 283 283 283 285 284 281 278 279 282 285 289 292 300 311 314 311 311 312 312 308
258 251 247 246 248 251 250 249 250 250 250 253 256 262 270 265 255 260 270 272 268 272 277 278 278 279 277 274 274 275 279 281 282 289 299 309 314 313 313 313 311 306
259 255 254 254 253 253 250 249 250 250 250 252 255 260 269 270 261 257 263 266 262 265 272 273 273 273 272 270 272 273 275 277 280 286 295 303 311 313 312 312 309 305
263 265 265 263 261 258 254 253 253 251 251 255 259 261 265 270 267 259 258 261 260 260 266 268 268 268 268 269 271 272 273 276 279 283 289 297 307 311 311 311 310 309
268 271 271 270 266 259 256 260 259 252 251 256 260 261 261 266 269 263 255 255 258 257 258 261 264 266 267 267 268 269 272 274 277 281 284 292 301 307 310 313 315 313
269 273 275 274 266 255 253 260 258 253 255 259 261 260 261 264 267 265 258 253 253 252 251 256 261 264 264 264 265 267 270 274 277 280 283 288 296 303 309 314 314 310
273 275 277 278 274 267 261 258 254 253 257 262 263 261 263 265 267 267 263 254 248 246 246 251 258 261 261 262 264 266 269 274 278 280 283 289 295 300 306 310 310 306
276 278 278 283 286 280 274 270 268 263 263 267 266 262 262 265 267 266 262 254 245 239 239 245 252 257 258 260 263 265 269 273 276 279 284 291 296 297 301 306 307 304
278 281 282 287 290 284 283 291 294 282 276 275 269 261 260 265 267 263 257 250 240 230 228 236 244 250 253 256 261 264 269 273 275 278 284 291 297 297 299 305 306 303
280 283 284 287 290 291 296 307 306 295 291 287 274 261 257 259 262 259 254 247 237 225 219 224 229 236 245 252 260 265 269 273 273 275 281 290 298 298 299 304 304 299
282 285 287 289 292 296 299 301 300 299 297 288 274 260 254 254 257 255 251 247 240 228 220 220 217 220 237 248 257 263 268 272 273 275 280 288 297 299 300 302 301 297
285 287 289 291 293 295 295 296 297 296 292 285 274 263 258 257 258 254 248 246 243 235 229 223 212 213 234 243 252 261 267 273 275 277 282 289 296 299 299 300 300 298
290 288 288 291 294 295 295 295 293 289 285 282 275 267 264 264 264 259 251 245 243 238 234 227 212 215 230 238 249 258 266 273 277 280 285 290 295 297 298 299 298 295
294 291 289 292 296 296 293 292 291 289 286 280 274 271 275 278 272 263 249 242 242 237 232 225 213 216 227 235 246 254 261 268 274 281 286 290 294 297 297 296 295 294
297 293 293 297 299 298 296 294 294 295 294 290 284 280 282 278 264 250 238 238 239 233 226 221 212 216 226 233 241 249 257 265 273 279 283 288 296 298 295 293 293 293
298 298 301 304 303 302 300 298 299 302 299 294 290 281 265 251 242 235 231 233 231 225 222 220 215 221 230 236 245 253 260 267 273 278 282 289 295 296 293 291 292 292
301 303 306 308 306 304 301 300 304 308 297 280 268 260 247 239 237 233 228 226 223 220 220 220 221 228 232 237 245 255 264 269 272 277 283 290 294 294 292 291 291 291
Height
3191 3192 3192 3193 3193 3193 3194 3194 3194 3194 3195 3195 3195 3195 3195 3194 3194 3193 3193 3192 3191 3190 3189 3188 3187 3186 3185 3184 3183 3183 3182 3181 3180 3179 3178 3178 3177 3176 3176 3175 3174 3174
3189 3189 3190 3190 3191 3191 3192 3192 3192 3192 3193 3193 3193 3193 3192 3192 3192 3192 3191 3191 3190 3189 3188 3187 3186 3184 3183 3182 3182 3181 3180 3179 3178 3178 3177 3176 3176 3175 3174 3173 3173 3172
3186 3187 3187 3188 3188 3189 3189 3190 3190 3191 3191 3191 3191 3191 3190 3190 3190 3190 3190 3189 3188 3188 3187 3186 3184 3183 3182 3181 3180 3179 3178 3177 3176 3176 3175 3175 3174 3173 3172 3172 3171 3170
3184 3184 3185 3186 3186 3187 3187 3187 3188 3188 3189 3189 3189 3189 3189 3188 3188 3188 3188 3187 3186 3186 3185 3184 3182 3181 3180 3179 3178 3177 3176 3175 3175 3174 3174 3173 3173 3172 3171 3170 3169 3168
3181 3182 3183 3183 3184 3185 3185 3185 3186 3186 3187 3187 3187 3187 3187 3187 3186 3186 3185 3185 3184 3183 3182 3181 3181 3180 3179 3178 3176 3175 3174 3173 3173 3173 3172 3172 3171 3171 3170 3169 3168 3167
3179 3180 3180 3181 3182 3182 3183 3183 3183 3184 3185 3185 3185 3185 3185 3185 3185 3184 3184 3183 3182 3181 3180 3180 3179 3178 3177 3176 3175 3173 3173 3172 3171 3171 3170 3170 3169 3169 3168 3167 3166 3165
3177 3177 3178 3179 3179 3180 3181 3181 3181 3180 3181 3182 3182 3182 3182 3182 3182 3182 3182 3181 3180 3179 3179 3178 3177 3176 3175 3174 3173 3172 3171 3170 3170 3169 3168 3168 3167 3167 3166 3165 3165 3164
3174 3174 3175 3176 3177 3177 3177 3177 3177 3177 3178 3178 3179 3180 3180 3179 3179 3179 3179 3178 3177 3177 3177 3176 3175 3174 3173 3172 3172 3171 3170 3169 3168 3167 3166 3165 3165 3164 3164 3163 3163 3162
3171 3171 3171 3173 3174 3174 3174 3174 3173 3174 3174 3174 3175 3176 3176 3175 3176 3176 3176 3175 3175 3175 3174 3174 3173 3172 3171 3171 3170 3169 3168 3167 3166 3165 3164 3163 3162 3162 3162 3161 3161 3160
3168 3167 3167 3170 3171 3171 3170 3170 3170 3170 3171 3171 3172 3172 3172 3172 3172 3173 3173 3173 3173 3172 3172 3171 3171 3169 3169 3169 3168 3167 3166 3165 3164 3163 3162 3161 3160 3160 3160 3159 3159 3158
3164 3162 3163 3166 3166 3166 3166 3167 3167 3168 3168 3169 3169 3169 3169 3169 3169 3169 3170 3170 3170 3170 3170 3169 3168 3167 3167 3167 3166 3165 3164 3163 3162 3161 3159 3158 3158 3158 3157 3157 3157 3156
3158 3157 3159 3160 3160 3160 3161 3163 3164 3164 3164 3165 3166 3166 3166 3165 3166 3166 3166 3166 3166 3166 3166 3166 3166 3165 3164 3164 3164 3163 3162 3161 3160 3159 3157 3156 3156 3156 3155 3155 3154 3153
3153 3152 3153 3153 3153 3154 3155 3156 3158 3158 3158 3160 3161 3161 3162 3162 3161 3161 3161 3162 3162 3162 3163 3163 3163 3162 3162 3161 3161 3160 3159 3158 3157 3156 3155 3154 3154 3153 3152 3152 3151 3150
3149 3148 3148 3148 3146 3147 3150 3152 3153 3153 3153 3155 3156 3156 3156 3156 3156 3156 3157 3157 3158 3158 3159 3159 3160 3160 3159 3158 3158 3157 3156 3156 3155 3154 3153 3152 3151 3151 3150 3149 3148 3146
3146 3144 3144 3143 3138 3140 3147 3150 3150 3151 3151 3151 3152 3152 3151 3151 3149 3149 3151 3152 3153 3154 3155 3156 3157 3157 3157 3156 3156 3155 3154 3153 3153 3152 3151 3150 3149 3148 3147 3146 3145 3144
3142 3140 3140 3138 3132 3132 3140 3146 3147 3149 3150 3149 3148 3147 3146 3145 3143 3144 3146 3147 3148 3149 3151 3152 3154 3155 3155 3154 3153 3152 3151 3151 3150 3149 3148 3147 3147 3145 3144 3143 3142 3141
3137 3136 3135 3133 3127 3124 3129 3138 3143 3145 3145 3143 3141 3140 3139 3138 3137 3138 3140 3142 3143 3145 3146 3149 3151 3152 3152 3152 3151 3150 3149 3148 3147 3146 3145 3145 3144 3143 3142 3141 3139 3138
3134 3133 3132 3130 3125 3120 3123 3131 3136 3136 3136 3134 3133 3133 3132 3131 3131 3130 3133 3136 3137 3138 3140 3143 3146 3148 3148 3148 3148 3147 3147 3146 3145 3144 3143 3142 3141 3140 3139 3138 3136 3134
3130 3130 3128 3127 3124 3121 3122 3125 3125 3127 3128 3128 3127 3127 3126 3126 3125 3125 3128 3131 3130 3131 3133 3135 3138 3140 3142 3144 3145 3145 3144 3143 3142 3141 3140 3139 3138 3137 3136 3135 3133 3132
3126 3125 3125 3124 3123 3121 3121 3120 3119 3120 3122 3122 3121 3119 3118 3118 3116 3118 3124 3127 3126 3128 3129 3128 3130 3134 3137 3140 3141 3141 3141 3140 3139 3138 3137 3136 3135 3134 3133 3131 3130 3128
3123 3122 3121 3121 3120 3119 3118 3117 3116 3117 3117 3115 3113 3111 3110 3110 3109 3112 3120 3122 3122 3124 3125 3124 3127 3130 3132 3135 3136 3137 3137 3136 3135 3135 3134 3133 3132 3130 3129 3127 3126 3124
3120 3119 3117 3117 3116 3115 3114 3112 3111 3111 3111 3110 3107 3105 3106 3107 3105 3109 3115 3118 3117 3119 3121 3123 3124 3125 3127 3130 3132 3133 3133 3132 3132 3131 3130 3129 3128 3126 3125 3123 3122 3120
3117 3116 3114 3113 3112 3111 3110 3108 3105 3103 3103 3102 3100 3101 3104 3105 3104 3107 3111 3112 3112 3115 3118 3120 3120 3121 3123 3125 3127 3128 3129 3128 3128 3127 3126 3125 3124 3123 3121 3119 3118 3117
3113 3112 3111 3110 3108 3107 3105 3102 3099 3096 3094 3093 3094 3097 3099 3101 3101 3104 3106 3107 3108 3112 3115 3116 3117 3118 3119 3121 3122 3123 3124 3124 3124 3123 3122 3121 3120 3118 3117 3115 3114 3112
3110 3109 3108 3106 3104 3102 3100 3097 3095 3093 3091 3091 3093 3094 3095 3096 3098 3100 3102 3104 3107 3110 3112 3114 3116 3116 3117 3118 3119 3120 3120 3120 3120 3119 3119 3118 3116 3114 3113 3111 3110 3108
3106 3105 3104 3102 3100 3098 3096 3094 3092 3091 3090 3092 3093 3093 3094 3095 3096 3097 3100 3103 3105 3108 3110 3112 3113 3113 3114 3115 3116 3117 3117 3117 3115 3115 3115 3113 3112 3110 3109 3107 3106 3104